THORAD DELTA 1 DEB, 8162

Orbit data source: Space-Track

THORAD DELTA 1 DEB, 8162 is space debris in SSO originally from a launch on Fri, 15 Nov 1974 UTC launched from the Air Force Western Test Range (AFWTR). Debris objects in space refer to the collection of defunct objects orbiting the Earth. Examples of debris include non-operational satellites, rocket bodies, and fragments generated from explosions, collisions, or faulty payload assembly.

Loading next visibility...
Identifier
8162, 1974-089AC
Orbit
SSO
Country
Flag of USUS
Related business
Manufacturer
Unknown
Mission
Spacecraft
Bus & Motor
Unknown
Mass
Unknown
Launch date (UTC)
1974-11-15 (51 years ago)
Launch vehicle
Unknown
Launch site
Air Force Western Test Range (AFWTR)
Object type
Payload
Rocket body
Debris
Shape & HBR
Unknown
Radar Cross Section
Small (<0.1 m²)

Expand to show TLE details & history
Last TLE update: 18 hours ago

TLE from 18 hours ago
0 THORAD DELTA 1 DEB
1 08162U 74089AC  25258.46164678  .00001908  00000-0  12145-1 0  9991
2 08162 100.7974 146.9895 0170018  23.1007 163.6087 12.49996814285491
Epoch: 2025-09-15T11:04Z
TLE epoch observation values (Epoch: 2025-09-15T11:04:46.281Z)
Latitude
-7.26231°
Longitude
164.74479°
Altitude
1,596.471 km
Speed
7.013 km/s
True Right ascension
21h 42m 24s
True Declination
-7° 13' 26"
Sunlit
Object was in full shadow at epoch
Visualization orbit readout
Latitude
Unknown
Longitude
Unknown
Altitude
Unknown
Speed
Unknown
Apparent Right ascension
Unknown
Apparent Declination
Unknown
Sunlit
N/A
Visualization observer readout
Local Sidereal Time
21:50:07
Azimuth
Unknown
Elevation
Unknown
Doppler factor
Unknown
Orbital elements
Apogee altitude
1,595.297 km
Perigee altitude
1,328.704 km
Semi-major axis
7,840.137 km
Eccentricity
0.017
Inclination
100.7974°
RAAN
146.9895°
Arg. of periapsis
23.1007°
True anomaly
164.14749°
Mean anomaly
163.6087°
Eccentric anomaly
163.87918°
Mean motion
3.12649 °/min
Orbital period
115.14 mins
BSTAR
0.012145
Loading maneuver chart data...
Computing Atmospheric mass density...
Loading historical data...
Loading historical data...
Loading historical data...
Loading historical data...
Loading historical data...
Loading historical data...
Loading historical data...

Documentation

Showing up to 5 results
|